Weather in Dappy

Russia / Khabarovsk Krai     50°11′19″N   137°23′16″E
temp.,
°C
wind,
m/s
gust,
m/s
humid.,
%
clouds,
%
prec.,
mm/h
press.,
hPa
HPBL,
m
27 january, wed
wed2701:00−20nne4698100 0.4 1017208
04:00−20n4797100 0.6 1017239
07:00−21nne5896100 0.1 1016275
10:00−21n5996100 0.3 1016336
13:00−20n4697100 0.7 1015405
16:00−20nnw4596100 1.2 1014450
19:00−21nnw2599100 0.5 1015343
22:00−22n2699100 1.0 1016328
28 january, thu
thu2801:00−23nne2398100 0.3 1016105
04:00−24ne1295100 0.3 101623
07:00−25ese1194100 0.0 101720
10:00−23sse2396100 0.1 1018149
13:00−21ssw4590100 0.1 1019616
16:00−21ssw3490100 0.1 1018493
19:00−27ese119747 0.0 101920
22:00−28ese119524 0.0 102019
29 january, fri
fri2901:00−28ene22926 0.0 101919
04:00−28ne338825 0.0 101826
07:00−27nne4689100 0.0 1015128
10:00−24nne6987100 0.0 1016302
13:00−22nne71195100 0.2 1013413
16:00−21n71296100 1.4 1012469
19:00−21n71295100 0.4 1014494
22:00−21nne71297100 1.5 1015491
30 january, sat
sat3001:00−20n61097100 1.1 1016523
04:00−20n4898100 1.8 1017533
07:00−22nnw3798100 0.5 1018354
10:00−21nnw3697100 1.0 1020417
13:00−20n2393100 0.5 1020425
16:00−19wsw1291100 0.8 1019444
19:00−20ssw2499100 0.3 1021151
22:00−21ssw4798100 0.6 1021392
31 january, sun
sun3101:00−23ssw5997100 0.3 1021465
04:00−26ssw5996100 0.4 1020417
07:00−27s51096100 0.1 1020444
10:00−26ssw61194100 0.1 1020599
13:00−25ssw71192100 0.0 1018647
16:00−25ssw71189100 0.1 1017687
19:00−27s51393100 0.0 1018464
22:00−27s61491100 0.0 1018503